TUBIN
1 48900U 21059X   25254.29416321  .00065264  00000-0  54277-3 0  9995
2 48900  97.6780  71.7648 0002878 238.9145 121.1834 15.69946836234691
LEDSAT
1 49069U 21073D   25254.18520508  .00177408  00000-0  95048-3 0  9994
2 49069  97.3777 340.6253 0002948 114.2426 245.9150 15.79810027226103
CUTE
1 49263U 21088D   25254.16082863  .00043300  00000-0  73331-3 0  9995
2 49263  97.4429 333.3754 0005276 241.5342 118.5379 15.51414206218914
TeikyoSat 4
1 49396U 21102B   25254.05684740  .00001977  00000-0  13218-3 0  9991
2 49396  97.4029 289.0979 0012826 166.1560 194.0023 15.08013475210637
Z-Sat
1 49399U 21102E   25254.22498268  .00003053  00000-0  16552-3 0  9992
2 49399  97.3723 292.9532 0019140 135.6668 224.6102 15.15158933211157
KOSEN 1
1 49402U 21102H   25253.90302016  .00005096  00000-0  22867-3 0  9991
2 49402  97.3618 296.7841 0017197 111.0102 249.2976 15.21498588211478
HO-113
1 50466U 21131B   25254.30066891  .00000535  00000-0  18049-3 0  9998
2 50466  98.5084 343.1912 0003768 199.9766 160.1275 14.40918602194945
SNUGLITE 2
1 52899U 22065F   25253.96421557  .00001088  00000-0  21948-3 0  9998
2 52899  98.1821  35.1065 0007705 172.0486 188.0839 14.63431181170143
UmKA 1 (RS40S)
1 57172U 23091G   25254.21351608  .00004672  00000-0  24357-3 0  9994
2 57172  97.5487 309.1224 0014211  17.2696 342.9017 15.16383895121666
CubeBel-2 (EU11S)
1 57175U 23091K   25254.24416025  .00008483  00000-0  38480-3 0  9991
2 57175  97.5482 310.9088 0011814  23.5197 336.6576 15.21011167121783
ENSO
1 58470U 23185J   25254.27806747  .00103609  00000-0  88131-3 0  9995
2 58470  97.3626 333.1184 0004081 114.9880 245.1806 15.69265278 99652
SONATE-2
1 59112U 24043Q   25254.17081835  .00018261  00000-0  47499-3 0  9996
2 59112  97.5254  27.4815 0010869 137.7370 222.4715 15.38913683 84711
MO-122
1 60209U 24125G   25254.02795416  .00015705  00000-0  40037-3 0  9998
2 60209  97.2676 104.7523 0018039 156.1336 204.0751 15.39447041 66317
GRBBeta
1 60237U 24128C   25254.01067755  .00003453  00000-0  25928-3 0  9998
2 60237  61.9900 113.6163 0056680  77.7641 282.9790 15.03429385 64246
Curium One
1 60242U 24128H   25254.07689650  .00006468  00000-0  43442-3 0  9994
2 60242  61.9796 110.1821 0056445  74.5612 286.1706 15.06500203 64313
ROBUSTA-3A
1 60243U 24128J   25254.17664136  .00006054  00000-0  41373-3 0  9990
2 60243  61.9866 110.9883 0055990  72.0633 288.6552 15.05970022 64313
CatSat
1 60246U 24125J   25253.02066675  .00016285  00000-0  49795-3 0  9990
2 60246  97.2491 101.8718 0041494 123.4205 237.1017 15.33066461 64137
HYPERVIEW-1G (RS66S)
1 61772U 24199AP  25254.21720513  .00019967  00000-0  51038-3 0  9999
2 61772  97.3370 123.0438 0011453 206.8310 153.2345 15.39418762 91345
AO-123
1 61781U 24199AY  25254.23634999  .00006114  00000-0  21523-3 0  9999
2 61781  97.3394 120.7989 0014116 220.2159 139.8038 15.29592115 91192
ZIMSAT 2
1 61783U 24199BA  25254.25297874  .00047906  00000-0  90403-3 0  9997
2 61783  97.3328 124.6031 0010613 196.4661 163.6246 15.48262354 94607
HADES-R (SO-124)
1 62690U 25009CK  25253.86917864  .00039867  00000-0  11206-2 0  9990
2 62690  97.4020 334.6978 0003078 141.5087 218.6377 15.36399081 36436
HYDRA-T
1 62692U 25009CM  25253.96424311  .00038702  00000-0  10719-2 0  9998
2 62692  97.4023 334.8756 0002719 138.5871 221.5580 15.36867718 36453
JINJUSat 1B
1 63210U 25052A   25253.45548117  .00011633  00000-0  50182-3 0  9991
2 63210  97.4270 146.4549 0004519  27.9977 332.1502 15.22688222 27379
NUSHSAT 1
1 63211U 25052B   25254.15294514  .00011252  00000-0  47854-3 0  9998
2 63211  97.4258 147.1793 0004720  32.0571 328.0952 15.23176900 27487
TEVEL2-4
1 63213U 25052D   25253.46465423  .00011797  00000-0  50786-3 0  9994
2 63213  97.4176 146.2257 0004602  50.1497 310.0144 15.22752694 27371
TEVEL2-5
1 63214U 25052E   25253.33544930  .00013914  00000-0  59891-3 0  9991
2 63214  97.4178 146.0936 0004625  50.6501 309.5145 15.22716936 27353
TEVEL2-6
1 63215U 25052F   25253.66860239  .00011635  00000-0  50195-3 0  9997
2 63215  97.4175 146.4147 0004700  50.7508 309.4145 15.22682062 27408
TEVEL2-1
1 63217U 25052H   25254.15391801  .00010333  00000-0  44937-3 0  9999
2 63217  97.4151 146.7771 0005205  57.1392 303.0344 15.22437891 27479
TEVEL2-3
1 63218U 25052J   25254.15400024  .00010361  00000-0  45048-3 0  9993
2 63218  97.4150 146.7791 0005249  57.5444 302.6300 15.22446629 27477
TEVEL2-2
1 63219U 25052K   25254.15462002  .00010385  00000-0  45165-3 0  9994
2 63219  97.4151 146.7775 0005240  57.4978 302.6764 15.22434744 27472
TEVEL2-9
1 63237U 25052AD  25253.44127082  .00011195  00000-0  50520-3 0  9992
2 63237  97.4219 145.8968 0009702  60.1834 300.0365 15.21120392 27345
TEVEL2-7
1 63238U 25052AE  25254.17163336  .00010171  00000-0  46030-3 0  9990
2 63238  97.4215 146.6049 0009712  58.1181 302.0999 15.21047981 27453
TEVEL2-8
1 63239U 25052AF  25253.32032175  .00013417  00000-0  60679-3 0  9994
2 63239  97.4219 145.7553 0009779  60.5304 299.6906 15.21001205 27329
HYDRA-W
1 63490U 25052BL  25254.15232373  .00027825  00000-0  10039-2 0  9999
2 63490  97.4161 147.5677 0012788  54.4154 305.8275 15.28403684 27525
HADES-ICM (SO-125)
1 63492U 25052BN  25252.69544967  .00029014  00000-0  10741-2 0  9995
2 63492  97.4175 146.0169 0013319  60.8904 299.3667 15.27540563 27290
